www.pogodaiklimat.ru
Время
(UTC), дата
05 29.07
04 29.07
06 29.07
07 29.07
08 29.07
09 29.07
11 29.07
10 29.07
12 29.07
13 29.07
14 29.07
15 29.07
17 29.07
16 29.07
18 29.07
19 29.07
20 29.07
21 29.07
23 29.07
22 29.07
00 30.07
01 30.07
02 30.07
03 30.07
05 30.07
04 30.07
06 30.07
07 30.07
08 30.07
09 30.07
11 30.07
10 30.07
12 30.07
13 30.07
14 30.07
15 30.07
17 30.07
16 30.07
18 30.07
19 30.07
20 30.07
21 30.07
23 30.07
22 30.07
00 31.07
01 31.07
02 31.07
03 31.07
05 31.07
04 31.07
06 31.07
07 31.07
08 31.07
09 31.07
11 31.07
10 31.07
12 31.07
13 31.07
14 31.07
15 31.07
17 31.07
16 31.07
18 31.07
19 31.07
20 31.07
21 31.07
23 31.07
22 31.07
00 1.08
01 1.08
02 1.08
03 1.08
05 1.08
04 1.08
06 1.08
07 1.08
08 1.08
09 1.08
11 1.08
10 1.08
12 1.08
13 1.08
14 1.08
15 1.08
17 1.08
16 1.08
18 1.08
19 1.08
20 1.08
21 1.08
23 1.08
22 1.08
00 2.08
01 2.08
02 2.08
03 2.08
05 2.08
04 2.08
06 2.08
07 2.08
08 2.08
09 2.08
11 2.08
10 2.08
12 2.08
13 2.08
14 2.08
15 2.08
17 2.08
16 2.08
18 2.08
19 2.08
20 2.08
21 2.08
23 2.08
22 2.08
00 3.08
01 3.08
02 3.08
03 3.08
05 3.08
04 3.08
06 3.08
07 3.08
08 3.08
09 3.08
11 3.08
10 3.08
12 3.08
13 3.08
14 3.08
15 3.08
17 3.08
16 3.08
18 3.08
19 3.08
20 3.08
21 3.08
23 3.08
22 3.08
00 4.08
01 4.08
02 4.08
03 4.08
05 4.08
04 4.08
06 4.08
07 4.08
08 4.08
09 4.08
11 4.08
10 4.08
12 4.08
13 4.08
14 4.08
15 4.08
17 4.08
16 4.08
18 4.08
19 4.08
20 4.08
21 4.08
23 4.08
22 4.08
00 5.08
01 5.08
02 5.08
03 5.08
Ветер
(напр.,м/с)
Видим. Явления Облачность Т
(С)
Тd
(С)
f
(%)
Тe
(С)
Тes
(С)
Комфортность P
(гПа)
Po
(гПа)
Тmin
(С)
Tmax
(С)
R
(мм)
R24
(мм)
S
(см)
штиль 0
{1}
40 км 1/0
[Ac lent Ci fib]
+21.2 +17.4 79 +25 +26 комфорт 1016.0 981.9
штиль 0
{1}
40 км 3/0
[Ac trans Cs]
+20.2 +18.0 87 +23 +23 комфорт 1015.5 981.3
С 1
{2}
50 км 1/0
[Ac lent Ci fib]
+22.8 +17.6 72 +28 +32 душно 1016.2 982.3 +20.1
ЮЗ 2
{3}
50 км 1/0
[Ac lent Ci fib]
+24.0 +17.9 69 +28 +28 душно 1016.2 982.4
В 1
{2}
50 км 1/0
[Ac lent Ci fib]
+26.9 +18.9 62 +32 +43 очень
душно
1016.2 982.7
В 1
{3}
50 км 1/0
[Ac lent Ci fib]
+28.1 +18.4 56 +33 +46 очень
душно
1015.9 982.6
В 2
{5}
50 км 1/1 2000 м
[Cu hum]
+30.2 +19.5 53 +36 +52 опасность
солнечного
удара
1015.3 982.2
В 1
{5}
50 км 1/1 2000 м
[Cu hum]
+29.2 +18.9 54 +35 +52 опасность
солнечного
удара
1015.7 982.5
ЮВ 2
{5}
50 км 1/1 2000 м
[Cu hum]
+30.6 +19.8 53 +37 +52 опасность
солнечного
удара
1015.0 982.0
ЮВ 1
{5}
50 км 3/3 2000 м
[Cu hum]
+30.9 +19.9 52 +37 +49 очень
душно
1014.6 981.6
В 2
{5}
н/о н/о +31.5 +19.9 50 +38 +38 очень
душно
1014.2 981.3
ЮВ 2
{5}
50 км 3/3 1500 м
[Cu hum]
+31.3 +20.1 51 +38 +42 очень
душно
1013.9 981.0
ЮВ 2
{5}
40 км 5/5 1500 м
[Cu med, cong]
+29.9 +20.6 57 +37 +37 очень
душно
1013.8 980.8
ЮВ 3
{6}
50 км 3/3 1500 м
[Cu med, cong]
+31.2 +21.1 55 +39 +41 очень
душно
1013.6 980.7
ЮВ 2
{4}
20 км гроза без осадков 8/8 1200 м
[Cb cap]
+28.9 +20.6 61 +36 +36 очень
душно
1013.9 980.8 +32.1
В 2 20 км гроза без осадков 8/8 1200 м
[Cb cap]
+28.2 +20.2 62 +35 +35 очень
душно
1014.6 981.4
С 4 20 км гроза без осадков 9/1 1200 м
[Cb cap]
+23.9 +18.0 70 +28 +28 душно 1017.5 983.7
Ю 1
{9}
н/о н/о +20.6 +19.0 91 +26 +26 душно 1019.8 985.5
З 1
{3}
н/о н/о +20.6 +19.0 91 +26 +26 душно 1019.4 985.1
штиль 0
{5}
н/о н/о +20.7 +19.4 92 +25 +25 комфорт 1019.7 985.4
СЗ 1
{2}
н/о н/о +20.4 +19.0 92 +25 +25 комфорт 1018.8 984.5
штиль 0
{2}
н/о н/о +20.4 +19.2 93 +24 +24 комфорт 1018.3 984.1
ЮЗ 1
{2}
н/о н/о +20.2 +18.9 92 +25 +25 комфорт 1018.2 983.9
З 1
{2}
6000 м туман на расстоянии {гроза, ливн. дождь} 4/3 90 м
[Sc Ac trans Ci fib]
+19.7 +18.3 92 +23 +23 комфорт 1018.5 984.2
ЮЗ 1 5000 м дымка 9/9 30 м
[Sc]
+19.8 +18.4 92 +24 +24 комфорт 1018.8 984.5
штиль 0 3000 м туман на расстоянии 8/8 30 м
[Sc Ac trans Ci fib]
+19.8 +18.8 94 +23 +23 комфорт 1018.5 984.2
С 1
{1}
5000 м дымка 9/9 30 м
[Sc]
+20.0 +18.6 92 +24 +25 комфорт 1019.3 985.0 +19.5 14 13.8
С 1 7000 м дымка 9/9 90 м
[Sc]
+20.9 +18.7 87 +26 +27 душно 1019.5 985.3
С 1 12 км 8/8 180 м
[Cu med, cong]
+22.2 +19.1 83 +28 +30 душно 1019.4 985.3
В 1
{3}
20 км 4/4 400 м
[Cu hum]
+24.4 +19.8 76 +30 +40 очень
душно
1019.1 985.3
С 1
{3}
30 км 1/1 1000 м
[Cu hum]
+27.4 +20.6 66 +34 +52 опасность
солнечного
удара
1018.0 984.6
С 2
{4}
30 км 1/1 600 м
[Cu hum]
+25.8 +20.5 73 +32 +47 очень
душно
1018.6 985.0
ЮВ 1
{4}
30 км 3/3 1000 м
[Cu hum]
+28.9 +20.3 60 +36 +49 очень
душно
1017.4 984.1
В 2
{4}
30 км 3/3 1000 м
[Cu hum]
+29.4 +20.5 59 +36 +46 очень
душно
1016.9 983.7
В 2
{4}
н/о н/о +30.8 +20.1 53 +37 +37 очень
душно
1016.2 983.2
ЮВ 2
{5}
н/о н/о +30.8 +17.4 45 +35 +35 очень
душно
1015.9 982.8
ЮВ 2
{4}
н/о н/о +30.0 +20.0 55 +36 +36 очень
душно
1015.7 982.6
В 1
{4}
н/о н/о +30.8 +19.8 52 +37 +37 очень
душно
1015.6 982.6
ЮВ 1
{3}
40 км 1/0
[]
+28.7 +20.4 61 +35 +36 очень
душно
1015.9 982.7 +31.3
штиль 0
{2}
20 км 1/0
[]
+27.3 +20.9 68 +34 +34 очень
душно
1016.4 983.0
штиль 0 20 км 1/0
[]
+26.1 +21.4 75 +33 +33 очень
душно
1016.9 983.4
С 1
{2}
н/о н/о +25.0 +21.1 79 +32 +32 очень
душно
1017.2 983.5
штиль 0
{1}
н/о н/о +23.8 +20.9 84 +30 +30 очень
душно
1017.2 983.4
штиль 0
{2}
н/о н/о +24.5 +21.1 81 +31 +31 очень
душно
1017.2 983.5
СВ 1
{2}
н/о н/о +23.1 +20.8 87 +31 +31 очень
душно
1017.2 983.3
штиль 0 н/о н/о +22.7 +20.7 88 +30 +30 очень
душно
1016.9 983.0
штиль 0 н/о н/о +22.2 +20.6 91 +29 +29 очень
душно
1016.6 982.6
ЮЗ 1
{2}
30 км 3/0
[Ac trans Ci fib]
+21.9 +20.5 92 +28 +28 душно 1016.4 982.4
С 1
{2}
2000 м дымка 10/10 90 м
[St]
+21.6 +20.4 93 +27 +27 душно 1016.7 982.7
штиль 0
{2}
800 м туман ?/? +21.1 +20.0 93 +26 +26 душно 1016.5 982.4
С 1 2000 м 8/8 100 м
[St]
+22.6 +20.9 90 +30 +30 очень
душно
1016.7 982.8 +21.1
СВ 1 6000 м дымка 8/6 90 м
[Sc Ac trans]
+23.4 +21.0 86 +31 +33 очень
душно
1016.6 982.8
ЮВ 1
{2}
30 км 5/1 1500 м
[Cu hum Ac trans Ci sp]
+25.9 +21.2 75 +33 +41 очень
душно
1016.2 982.7
В 1
{3}
30 км 5/1 2000 м
[Cu hum Ac trans Ci sp]
+27.7 +21.6 69 +35 +47 очень
душно
1015.7 982.4
С 1
{4}
30 км 3/1 2000 м
[Cu hum Ac trans Ci fib]
+30.7 +21.1 57 +38 +55 опасность
солнечного
удара
1014.1 981.2
В 1
{3}
30 км 3/1 2000 м
[Cu hum Ac trans Ci fib]
+29.8 +21.3 60 +37 +53 опасность
солнечного
удара
1015.0 981.9
ЮВ 1
{3}
30 км 4/1 2000 м
[Cu hum Ac trans Ci sp]
+31.9 +22.1 56 +41 +55 опасность
перегрева
1013.5 980.7
СВ 5
{8}
30 км 6/3 2000 м
[Cu med, cong Ac cuf Ci sp]
+30.8 +21.2 57 +39 +43 очень
душно
1013.1 980.2
СВ 3
{4}
н/о н/о +30.5 +21.3 58 +38 +38 очень
душно
1012.7 979.8
СВ 2
{3}
н/о н/о +29.3 +20.6 59 +36 +36 очень
душно
1013.3 980.2
ЮЗ 2
{4}
н/о н/о +28.2 +19.6 60 +34 +34 очень
душно
1013.0 979.8
С 1
{2}
н/о н/о +29.2 +20.2 58 +36 +36 очень
душно
1013.2 980.1
Ю 2
{4}
30 км 8/0
[]
+26.8 +19.5 64 +32 +32 очень
душно
1013.8 980.4 +32.7
Ю 2
{3}
20 км 6/0
[]
+25.8 +19.3 67 +31 +31 очень
душно
1014.2 980.7
ЮЗ 1 20 км 5/0
[]
+25.4 +18.7 66 +30 +30 душно 1014.5 980.9
ЮЗ 1
{3}
н/о н/о +24.3 +19.3 74 +29 +29 душно 1015.0 981.3
ЮЗ 2
{3}
н/о н/о +22.9 +19.0 79 +29 +29 очень
душно
1014.9 981.0
ЮЗ 1
{3}
н/о н/о +23.7 +18.8 74 +28 +28 душно 1014.9 981.1
Ю 2
{2}
н/о н/о +22.3 +19.2 83 +28 +28 душно 1014.9 981.0
Ю 1
{2}
н/о н/о +21.8 +19.2 85 +27 +27 душно 1014.8 980.8
штиль 0
{1}
н/о н/о +21.4 +19.0 86 +26 +26 душно 1014.8 980.8
С 1
{1}
15 км туман на расстоянии ясно +21.1 +19.4 90 +26 +26 душно 1015.0 980.9
штиль 0 6000 м дымка 8/5 30 м
[St Ac trans]
+21.6 +19.5 88 +27 +27 душно 1015.2 981.2
штиль 0 4000 м туман на расстоянии 4/4 30 м
[St]
+21.0 +19.1 89 +25 +25 комфорт 1015.2 981.1
штиль 0
{2}
10 км 5/3 30 м
[St Ac trans Ci fib]
+23.0 +20.4 85 +30 +33 очень
душно
1015.1 981.3 +20.9
В 2
{3}
12 км 5/1 800 м
[Cu hum Ac trans Ci fib]
+24.1 +20.8 82 +30 +35 очень
душно
1014.9 981.2
С 1
{2}
н/о н/о +26.2 +21.1 74 +33 +33 очень
душно
1014.4 981.0
В 1
{3}
н/о н/о +27.8 +21.4 68 +35 +35 очень
душно
1014.0 980.8
ЮВ 1
{3}
н/о н/о +30.3 +21.5 59 +38 +38 очень
душно
1012.9 980.0
Ю 2
{4}
н/о н/о +28.6 +20.8 63 +36 +36 очень
душно
1013.7 980.5
Ю 2
{4}
20 км 3/3 1080 м
[Cu med, cong]
+31.2 +21.6 57 +40 +51 опасность
солнечного
удара
1012.1 979.3
ЮВ 2
{4}
20 км 3/3 1200 м
[Cu med, cong Ac lent Ci sp]
+32.1 +20.6 51 +39 +49 очень
душно
1011.2 978.5
В 2
{4}
н/о н/о +32.2 +19.2 46 +38 +38 очень
душно
1010.6 977.9
ЮВ 2
{4}
н/о н/о +33.0 +19.0 44 +38 +38 очень
душно
1010.2 977.6
В 3
{6}
н/о н/о +30.9 +19.7 51 +37 +37 очень
душно
1010.0 977.2
ЮВ 2
{4}
н/о н/о +33.0 +19.4 45 +39 +39 очень
душно
1009.7 977.1
ЮВ 1
{4}
30 км 8/0
[]
+29.4 +19.9 57 +36 +36 очень
душно
1010.8 977.8 +33.4
Ю 3
{6}
20 км 5/0
[]
+26.4 +18.8 63 +31 +31 душно 1011.6 978.2
штиль 0 20 км 3/0
[]
+25.6 +18.7 66 +31 +31 очень
душно
1011.9 978.4
Ю 1
{3}
н/о н/о +24.7 +18.7 69 +29 +29 душно 1012.8 979.2
З 1
{2}
н/о н/о +23.2 +18.9 77 +29 +29 душно 1013.4 979.6
Ю 1
{2}
н/о н/о +23.6 +18.7 74 +28 +28 душно 1013.1 979.4
штиль 0
{2}
н/о н/о +22.6 +18.6 78 +28 +28 душно 1013.2 979.4

{3}
н/о н/о +22.4 +19.6 84 1012.8 979.0
штиль 0
{3}
н/о н/о +21.9 +19.0 84 +27 +27 душно 1012.8 978.9
штиль 0
{1}
н/о н/о +22.2 +19.0 82 +28 +28 душно 1013.4 979.5
В 4 15 км гроза, ливневой дождь 10/6 600 м
[Cb cap Ac As]
+21.2 +18.3 84 +25 +26 комфорт 1013.7 979.7
С 3 15 км слаб. ливневой дождь 10/6 600 м
[Cu Sc Ac As]
+22.0 +18.3 80 +27 +27 душно 1013.8 979.9
З 1
{5}
30 км в посл. час гроза {ливн. дождь} 9/3 800 м
[Cu Sc Ac As Ci fib]
+20.6 +17.6 83 +25 +27 комфорт 1014.2 980.1 +20.2 0.1 0.1
СВ 2 20 км слаб. ливневой дождь 10/4 300 м
[Cu Sc Ac As]
+20.9 +18.3 85 +26 +27 душно 1014.2 980.1
З 1 12 км слаб. ливневой дождь 10/5 90 м
[Cu Sc Ac As]
+21.0 +18.3 85 +26 +28 душно 1014.8 980.7
С 3
{5}
15 км ливневой дождь 10/4 90 м
[Sc Ac As]
+20.1 +18.6 91 +24 +26 комфорт 1014.3 980.1

{5}
н/о н/о +22.7 +18.1 75 1013.4 979.6
С 2
{5}
н/о н/о +21.1 +19.0 88 +25 +25 комфорт 1013.8 979.8
С 2
{4}
15 км {гроза, ливн. дождь} 10/6 300 м
[Sc Ac As]
+22.2 +18.5 80 +27 +29 душно 1013.5 979.6 5
С 4 12 км в посл. час ливневой дождь 10/8 400 м
[Sc Ac As]
+21.4 +19.1 87 +26 +27 душно 1013.3 979.3
С 1
{4}
н/о н/о +21.5 +18.9 85 +26 +26 душно 1013.3 979.3
С 2
{6}
н/о н/о +20.2 +18.4 89 +24 +24 комфорт 1013.2 979.1
СЗ 1
{4}
н/о н/о +19.9 +17.9 88 +24 +24 комфорт 1012.4 978.3
С 2
{5}
н/о н/о +19.6 +17.8 89 +23 +23 комфорт 1012.9 978.7
штиль 0
{2}
25 км {ливн. дождь} 5/4 400 м
[Sc Ac lent Ci sp]
+19.8 +17.6 87 +22 +22 комфорт 1011.9 977.8 +23.1 8.6
З 1 25 км 8/4 300 м
[Sc Ac trans Ci sp]
+19.4 +17.6 89 +23 +23 комфорт 1012.0 977.8
штиль 0 25 км 4/3 180 м
[Sc Ac trans Ci sp]
+19.0 +17.7 92 +20 +20 1012.0 977.8
штиль 0
{1}
н/о н/о +18.7 +17.8 95 +20 +20 1012.1 977.8
С 1
{2}
н/о н/о +18.7 +17.7 94 +21 +21 комфорт 1011.5 977.3
СВ 1
{2}
н/о н/о +18.5 +17.9 96 +20 +20 1011.6 977.3
штиль 0
{1}
н/о н/о +18.5 +17.4 93 +19 +19 1010.7 976.5
штиль 0
{1}
н/о н/о +18.5 +17.3 93 +19 +19 1010.1 975.9
штиль 0
{1}
н/о н/о +18.7 +17.6 93 +20 +20 1009.6 975.4
штиль 0
{2}
1000 м гроза без осадков 9/6 30 м
[Cb cap Ac As]
+18.5 +17.5 94 +19 +19 1009.0 974.8
С 2 7000 м ливневой дождь, в посл. час гроза 10/9 90 м
[Cu Sc Ac As]
+18.4 +17.7 96 +20 +20 1008.9 974.7
Ю 1 7000 м гроза, ливневой дождь 10/10 300 м
[Cb cap]
+18.6 +17.7 95 +21 +21 комфорт 1010.5 976.3
штиль 0
{1}
12 км в посл. час ливневой дождь {гроза} 9/8 90 м
[Cu Sc Ac As]
+18.9 +17.8 93 +20 +21 1008.6 974.5 +18.3 9 17.5
СВ 1 5000 м слаб. ливневой дождь 10/6 90 м
[Sc Ac As]
+19.5 +18.5 94 +23 +24 комфорт 1008.8 974.8
С 1 5000 м ливневой дождь 10/9 90 м
[Sc Ac As]
+19.8 +18.7 93 +24 +24 комфорт 1008.8 974.8
СЗ 1
{4}
7000 м ливневой дождь {гроза} 9/8 90 м
[Cu Sc Ac As]
+20.0 +18.6 92 +24 +26 комфорт 1008.6 974.6
ЮВ 1 12 км 10/8 400 м
[Cu Sc Ac As]
+22.8 +17.2 71 +28 +29 душно 1007.2 973.6
С 1 10 км в посл. час ливневой дождь 9/6 180 м
[Cu Sc Ac As]
+21.7 +18.3 81 +26 +30 душно 1007.9 974.1
ЮВ 1
{3}
14 км гроза, ливневой дождь 10/8 400 м
[Cb cap Ac cuf]
+22.7 +18.9 79 +29 +30 очень
душно
1006.6 973.0 4
штиль 0 10 км гроза, ливневой дождь 10/4 400 м
[Cb cap Ac cuf]
+21.6 +18.5 83 +26 +30 душно 1006.5 972.8
ЮВ 1
{2}
н/о н/о +21.8 +19.2 85 +27 +27 душно 1006.4 972.7
В 2
{4}
н/о н/о +22.1 +20.0 88 +28 +28 душно 1005.2 971.6
ЮВ 2 20 км слаб. ливневой дождь 10/8 1000 м
[Cu Sc Ac As]
+20.7 +18.3 86 +25 +25 комфорт 1004.3 970.5
СВ 4 10 км 10/8 90 м
[Cu Sc Ac As]
+21.7 +19.6 88 +27 +27 душно 1003.8 970.2
Ю 2
{6}
20 км гроза, ливневой дождь 10/8 1000 м
[Cu Sc Ac cast]
+18.9 +16.8 88 +21 +21 комфорт 1005.3 971.3 +23.7 8
В 3 20 км гроза, ливневой дождь 10/9 1000 м
[Cb cap Ac cuf]
+18.3 +16.7 90 +19 +19 1004.9 970.8
В 2 20 км 10/9 1000 м
[Cu Sc Ac As]
+17.8 +16.5 92 +18 +18 1004.9 970.8
С 1
{2}
н/о н/о +17.4 +16.3 93 +18 +18 1004.7 970.5
штиль 0
{2}
н/о н/о +17.1 +16.2 94 +17 +17 1004.1 969.9
штиль 0
{2}
н/о н/о +17.1 +16.0 93 +17 +17 1004.9 970.7
Ю 1
{2}
н/о н/о +16.9 +16.0 94 +18 +18 1003.9 969.7
штиль 0
{1}
н/о н/о +17.0 +16.0 94 +17 +17 1003.8 969.6
ЮВ 1
{2}
н/о н/о +17.1 +16.0 93 +18 +18 1003.6 969.4
В 1
{4}
10 км слаб. ливневой дождь 9/8 90 м
[Sc Ac As]
+16.8 +15.8 94 +18 +18 1003.7 969.5
штиль 0
{1}
3000 м в посл. час ливневой дождь 10/10 150 м
[St]
+17.0 +15.9 93 +17 +17 1004.7 970.5
В 1
{2}
3000 м слаб. ливневой дождь, в посл. час гроза 10/10 90 м
[St]
+16.9 +15.9 94 +18 +18 1004.1 969.9
СВ 1
{2}
5000 м {гроза, ливн. дождь} 8/8 150 м
[St]
+17.2 +16.2 94 +18 +19 1005.0 970.8 +16.7 7 21.2
С 1
{2}
10 км 9/9 180 м
[St]
+18.0 +15.7 86 +19 +20 1005.4 971.3
В 1 12 км 10/10 180 м
[Sc]
+19.0 +16.0 83 +21 +21 комфорт 1005.5 971.5
Ю 1
{3}
15 км {гроза, ливн. дождь} 9/9 300 м
[Cu Sc]
+20.4 +16.6 79 +25 +26 комфорт 1006.1 972.2

{4}
20 км 6/4 800 м
[Cu med, cong Ac cuf Ci ing]
+24.2 +16.8 63 1005.4 972.0
ЮЗ 1 20 км 6/4 600 м
[Cu Sc Ac trans Ci fib]
+21.8 +16.3 71 +26 +35 душно 1005.8 972.1
С 4
{7}
25 км слаб. ливневой дождь 8/4 1000 м
[Cb calv Ac cuf Ci ing]
+20.4 +14.2 68 +23 +27 комфорт 1006.3 972.4 0.0
С 3
{5}
30 км в посл. час ливневой дождь 8/3 1000 м
[Cu med, cong Ac cuf Ci ing]
+20.9 +14.4 66 +24 +29 комфорт 1005.9 972.1
СЗ 2
{5}
н/о н/о +23.2 +14.2 57 +27 +27 душно 1005.5 971.9
В 3
{6}
н/о н/о +22.4 +15.5 65 +26 +28 жарко 1006.8 973.1
ЮВ 2
{8}
30 км слаб. ливневой дождь 9/3 1000 м
[Cu hum Ac und Ci sp]
+20.0 +16.0 78 +23 +24 комфорт 1008.7 974.7
В 2
{5}
30 км 9/3 1000 м
[Cu hum Ac cuf Cs]
+21.8 +15.2 66 +25 +25 комфорт 1007.3 973.5
В 2
{6}
30 км слаб. ливневой дождь 10/5 1000 м
[Cu Sc Ac As Ci sp]
+17.9 +15.5 86 +18 +18 1009.8 975.5 +24.7 0.6
Ю 2 30 км слаб. ливневой дождь 10/5 1000 м
[Cu Sc Ac As]
+17.3 +15.4 89 +18 +18 1011.2 976.8
ЮЗ 1 30 км слаб. ливневой дождь 10/5 1000 м
[Cu Sc Ac As]
+17.1 +15.5 90 +18 +18 1011.2 976.8
штиль 0
{2}
н/о н/о +17.0 +15.4 90 +17 +17 1011.9 977.4
ЮЗ 1
{3}
н/о н/о +16.3 +14.5 89 +17 +17 1012.0 977.4
ЮЗ 1
{3}
н/о н/о +16.4 +14.8 90 +17 +17 1012.3 977.7
Ю 2
{3}
н/о н/о +16.1 +13.9 87 +16 +16 1012.5 977.9
Ю 2
{3}
н/о н/о +16.1 +13.7 86 +16 +16 1012.7 978.1
Ю 2
{4}
н/о н/о +15.9 +12.9 82 +16 +16 1013.3 978.6
ЮВ 2
{3}
20 км слаб. ливневой дождь 10/8 1000 м
[Sc Ac As]
+15.5 +12.5 82 +15 +15 1013.8 979.0
Местоположение метеостанции Любляна (Словения): широта 46.07 долгота 14.52 высота над уровнем моря 298 м.
В архиве по умолчанию представлена погода в Любляне за последнюю неделю. Архивные данные за месяц целиком и за предыдущие месяцы, начиная с января 2011 года, Вы можете получить, выбрав интересующий диапазон дат из раскрывающегося списка и нажав кнопку "Найти!".
*Определитесь, кто Вы:
Внимание! Время в таблицах - всемирное. Для получения местного времени необходимо прибавить поправку, которая равна 1 ч.
Смотрите также архив погоды в соседних городах и на ближайших метеорологических станциях:
Партнеры нашего сайта:      
Пояснения к столбцам:
  • Ветер - указаны скорость ветра в м/с - средняя за 10 мин, порывы в срок и между сроками (в фигурных скобках) и направление, откуда дует ветер: С - северный,
  • СВ - северо-восточный, В - восточный, ЮВ - юго-восточный, Ю - южный, ЮЗ - юго-западный, З - западный, СЗ - северо-западный.
  • Видимость - горизонтальная дальность видимости в метрах или километрах. При видимости от 1 до 10 км при отсутствии осадков обычно наблюдается дымка, при ухудшении видимости до 1 км и менее - туман. В сухую погоду видимость может ухудшаться дымом, пылью или мглою.
  • Явления - указаны атмосферные явления, наблюдавшиеся в срок или в последний час перед сроком; фигурными скобками обозначены явления, наблюдавшиеся между сроками (за 1-3 часа до срока); квадратными скобками обозначены град или гололедные отложения с указанием их диаметра в мм.
  • Облачность - указаны через наклонную черту общая и нижняя облачность в баллах и высота нижней границы облаков в метрах; квадратными скобками обозначены формы облаков: Ci - перистые, Cs - перисто-слоистые, Cc - перисто-кучевые, Ac - высококучевые, As - высокослоистые, Sc - слоисто-кучевые, Ns - слоисто-дождевые, Cu - кучевые, Cb - кучево-дождевые. Подробнее классификацию облаков см. в Атласе облаков (PDF).
  • T - Температура воздуха - температура, измеренная на высоте 2 м над землей.
  • Td - Температура точки росы - температура, при понижении до которой содержащийся в воздухе водяной пар достигнет насыщения.
  • f - Относительная влажность воздуха - влажноcть воздуха, измеренная на высоте 2 м над землей.
  • Te - Эффективная температура - температура, которую ощущает одетый по сезону человек в тени. Характеристика душности погоды. При расчете учитывается влияние влажности воздуха и скорости ветра на теплоощущения человека.
  • Tes - Эффективная температура на солнце - температура, которую ощущает человек, с поправкой на солнечный нагрев. Характеристика знойности погоды. Зависит от высоты солнца над горизонтом, облачности и скорости ветра. Ночью, в пасмурную погоду, а также при ветре 12 м/с и более поправка равна нулю.
  • P - Атмосферное давление - приведенное к уровню моря атмосферное давление.
  • Po - Атмосферное давление - измеренное на уровне метеостанции атмосферное давление.
  • Tmin - Минимальная температура - минимум температуры воздуха на высоте 2 м над землей.
  • Tmax - Максимальная температура - максимум температуры воздуха на высоте 2 м над землей.
  • R - Количество осадков - Количество выпавших осадков за период времени, мм. При наведении курсора мыши на число - период времени, за который выпало указанное количество осадков.
  • R24 - Количество осадков - Количество выпавших осадков за 24 часа, мм.
  • S - Снежный покров - Высота снежного покрова, см. При наведении курсора мыши на число - состояние снежного покрова и степень покрытия местности в баллах.